Location: Isle of Man Observatory
(54.1776°N, 4.6264°W)
Time: 08:01:32
(UTC+02:00)

ISS - Visible Passes

Search period start: 27 May 2019 00:00
Search period end: 06 June 2019 00:00
Orbit: 408 x 418 km, 51.6° (Epoch: 27 May)

Date Brightness Start Highest point End Pass type
(mag) Time Alt. Az. Time Alt. Az. Time Alt. Az.
27 May -3.4 00:11:13 10° W 00:14:25 45° SSW 00:17:13 13° ESE visible
27 May -1.9 01:48:13 10° WSW 01:50:01 17° SW 01:50:01 17° SW visible
27 May -3.5 23:21:46 10° W 23:25:02 52° S 23:28:19 10° ESE visible
28 May -2.5 00:58:32 10° W 01:01:19 24° SSW 01:02:08 22° S visible
29 May -2.8 00:08:58 10° W 00:12:00 31° SSW 00:14:15 15° SE visible
30 May -1.7 00:56:48 10° WSW 00:58:41 14° SW 00:59:13 14° SSW visible
31 May -2.0 00:06:54 10° W 00:09:25 20° SSW 00:11:23 13° S visible
02 Jun -1.3 00:05:40 10° WSW 00:06:39 11° SW 00:07:39 10° SSW visible
